Vorticity
nan nan nan nan nan nan nan nan nan nan nan nan nan nan nan nan nan nan nan nan nan nan nan nan nan nan nan nan nan nan nan nan nan nan nan nan nan nan nan nan nan nan nan nan nan nan nan nan nan
nan 3 5 8 5 4 8 10 7 6 7 6 5 6 6 7 12 12 10 13 6 4 5 7 8 5 4 4 3 4 4 4 4 4 5 4 4 6 6 5 5 6 6 6 6 7 6 6 nan
nan 5 6 9 5 6 7 8 8 9 5 3 5 7 8 10 12 6 10 11 4 4 6 10 8 5 4 4 4 4 4 3 3 4 4 5 7 6 5 6 5 5 6 6 7 7 6 5 nan
nan 6 8 7 5 7 11 9 7 5 5 7 6 5 10 11 10 11 11 5 3 5 9 11 7 4 4 4 3 4 4 4 3 3 4 4 7 8 7 6 7 6 6 5 6 6 8 6 nan
nan 7 8 5 6 8 10 8 6 5 7 6 8 6 6 9 16 12 5 5 3 5 7 9 8 5 4 4 4 4 4 4 4 4 4 4 6 8 8 6 5 6 7 6 5 5 6 6 nan
nan 7 5 6 6 7 9 11 4 6 9 7 7 8 7 12 7 5 5 5 6 5 6 10 9 5 4 4 4 4 4 4 4 4 4 4 4 7 7 6 5 5 6 7 6 6 5 5 nan
nan 8 7 5 6 8 11 7 6 7 4 9 5 3 8 8 7 7 5 7 8 6 6 7 9 10 7 5 4 4 4 4 4 4 4 4 4 4 5 7 5 5 5 5 6 6 6 5 nan
nan 7 7 7 8 7 8 6 8 5 7 11 7 7 11 11 8 5 6 6 7 7 7 7 7 7 8 11 9 5 4 4 4 4 4 5 7 6 5 5 6 6 5 5 5 5 5 5 nan
nan 6 8 8 7 8 7 6 6 8 7 5 14 18 18 11 5 4 3 5 6 6 6 7 7 7 7 7 11 11 7 7 6 6 6 6 6 6 9 8 8 6 6 5 5 5 5 5 nan
nan 7 9 10 7 8 6 8 7 7 4 4 16 17 11 6 3 4 4 5 4 4 4 6 7 7 6 6 8 8 9 8 8 10 7 8 8 5 5 9 11 10 7 7 7 7 7 6 nan
nan 4 8 10 11 9 6 6 10 5 6 14 10 5 4 3 4 5 5 7 6 3 5 7 6 8 5 6 6 6 8 7 7 7 6 8 6 6 7 8 8 8 10 9 8 9 9 8 nan
nan 8 10 11 9 8 9 7 7 7 15 18 12 4 2 4 4 5 7 7 7 6 6 5 7 6 6 6 7 7 6 7 8 8 8 6 7 7 7 7 8 7 8 8 7 7 7 7 nan
nan 11 11 9 8 7 10 7 7 11 16 11 8 6 4 3 3 6 8 7 9 8 6 6 6 7 7 6 6 8 7 7 8 6 8 6 7 7 7 8 8 7 7 8 7 7 8 8 nan
nan 13 7 6 6 9 6 4 8 12 12 9 6 3 4 6 5 3 8 7 7 7 8 8 7 8 7 7 6 7 7 7 7 7 8 7 7 8 7 8 7 8 7 7 8 8 8 8 nan
nan 5 7 6 9 6 1 5 14 14 9 5 3 6 7 5 7 9 6 7 6 5 9 9 7 7 6 7 6 7 8 8 6 8 9 8 7 7 7 7 7 8 8 8 8 7 7 9 nan
nan 5 7 7 8 6 5 8 10 13 9 7 9 10 8 9 9 7 6 8 9 9 9 8 8 6 5 6 7 7 7 7 8 9 9 9 8 7 7 7 7 7 8 7 8 8 8 10 nan
nan 9 7 12 8 10 8 12 8 10 10 7 9 10 8 10 10 9 10 8 7 7 8 8 8 8 8 7 8 8 8 7 8 8 9 11 9 7 8 7 7 7 8 8 7 8 9 8 nan
nan 6 11 9 5 9 10 10 8 9 10 5 5 7 9 11 10 11 10 9 8 8 7 7 8 9 8 7 8 9 9 9 9 9 9 9 9 8 7 7 8 8 8 8 8 8 8 7 nan
nan 7 7 7 8 9 6 7 5 9 9 7 7 4 9 10 11 11 13 13 8 8 9 8 8 7 6 8 8 8 9 8 9 10 9 9 8 8 6 7 7 8 8 9 8 8 8 8 nan
nan 9 9 6 11 11 7 4 8 9 9 9 8 11 9 10 11 7 11 15 11 9 8 9 8 8 6 7 8 9 10 9 8 9 10 10 9 8 7 7 8 8 8 9 8 7 7 9 nan
nan 11 11 8 5 5 8 3 10 10 7 10 13 12 7 8 6 8 13 14 12 10 11 10 9 8 9 8 7 7 7 8 9 9 10 10 11 9 8 7 8 8 8 8 8 9 7 7 nan
nan 15 16 6 5 6 5 11 4 7 9 9 8 11 11 5 6 7 11 9 13 13 9 7 10 10 10 9 8 7 6 7 7 8 7 10 11 10 9 9 7 8 8 8 8 8 8 8 nan
nan 13 12 7 7 7 8 15 7 6 10 9 10 11 11 8 4 7 8 9 11 16 11 5 7 6 8 9 7 7 7 7 7 7 7 8 9 11 10 9 9 9 7 9 8 8 8 6 nan
nan 3 5 12 7 5 12 9 9 9 5 5 8 14 9 12 8 7 8 9 11 12 12 14 10 8 6 4 7 9 7 5 7 7 8 9 9 9 9 11 9 9 8 8 8 9 9 7 nan
nan 5 6 7 12 9 7 7 11 8 8 7 2 9 13 17 13 7 7 8 11 12 17 17 11 11 7 6 7 8 10 9 7 7 7 8 9 10 10 10 10 9 9 9 9 10 9 8 nan
nan 8 8 12 6 10 8 5 11 10 9 9 9 9 13 13 10 6 7 9 8 10 16 15 11 11 11 10 10 14 11 8 9 8 9 11 8 7 8 7 9 9 10 9 8 8 9 10 nan
nan 9 10 5 9 13 6 6 10 13 10 9 10 7 10 7 8 7 6 6 7 8 8 9 10 12 11 13 10 9 12 12 11 11 12 11 13 12 8 7 9 9 8 9 10 8 9 9 nan
nan 8 6 10 14 7 9 10 14 14 7 7 10 6 7 6 6 5 7 8 7 8 6 7 8 8 9 9 10 10 10 10 11 12 11 12 13 12 12 11 12 11 9 10 9 8 11 9 nan
nan 6 11 14 8 11 9 10 18 15 11 7 5 7 8 8 6 6 7 7 7 7 8 8 8 8 8 8 9 8 8 10 11 9 9 10 12 10 11 11 12 13 12 12 11 9 10 8 nan
nan nan nan nan nan nan nan nan nan nan nan nan nan nan nan nan nan nan nan nan nan nan nan nan nan nan nan nan nan nan nan nan nan nan nan nan nan nan nan nan nan nan nan nan nan nan nan nan nan
CAPE
1359 1247 967 197 6 5 13 25 42 131 79 103 31 49 3 74 0 0 21 70 520 917 1016 1324 1746 1132 1306 1391 1485 1368 1328 1459 1493 1602 1751 2166 2333 1883 1955 2446 2111 2474 2466 2333 2013 1800 1445 1895 1658
0 917 638 52 0 0 12 60 51 162 59 55 101 72 84 250 240 171 128 203 731 943 1013 1155 1823 1434 1223 1258 1353 1320 1223 1335 1377 1363 1452 1535 1651 2012 2135 1670 2094 2314 2401 2240 2038 1901 1626 1641 2149
318 712 752 108 0 0 24 162 181 49 82 175 117 39 141 170 155 45 123 352 917 861 800 1206 1446 1468 1187 1201 1247 1320 1232 1238 1259 1136 1152 1370 1717 1636 1780 1863 1791 2083 1870 2213 1651 1860 1713 1582 1656
636 19 9 0 2 0 47 326 34 146 498 443 116 68 158 169 11 164 188 553 833 922 937 1477 1337 1311 1225 1278 1329 1360 1263 1248 1184 1076 946 1143 1584 1550 1643 1788 1708 2074 2042 1627 1895 2107 1855 1787 1864
73 0 0 0 22 158 9 357 157 593 473 380 77 143 108 131 154 175 206 394 786 955 1054 1252 2102 1354 1473 1732 1951 1625 1415 1322 1187 978 869 967 1296 1565 1498 1715 1414 1640 1982 1998 1425 1817 2013 1923 1793
0 0 0 0 8 0 31 421 634 659 423 106 80 65 93 106 181 191 174 294 624 837 1168 1428 1853 1487 1586 1953 1985 1881 1659 1519 1300 1005 787 846 974 1432 1505 1428 1566 1336 1525 1743 1819 1447 1339 1693 1662
0 0 1 0 22 55 267 587 738 590 493 128 5 146 85 181 165 148 218 442 595 938 1292 1468 1543 1461 1656 1820 2036 1848 1781 1646 1551 1137 754 791 1248 977 1313 1499 1324 1324 1366 1334 1285 1575 1589 1249 1345
0 0 6 0 32 52 478 630 822 699 587 81 138 328 247 206 49 329 482 760 1114 1315 1391 1339 1285 1467 1151 1220 1824 1821 1772 1742 1596 1312 946 838 876 1022 988 1243 1158 1315 1205 1147 1074 1115 1091 1181 1219
0 0 0 3 36 152 232 765 798 497 316 152 158 204 192 122 363 438 625 834 1075 1269 1392 1115 1128 1121 1086 1012 1246 1697 1813 1702 1546 1296 1142 812 360 159 182 791 1251 1108 1324 1220 1113 999 908 916 933
0 0 0 0 20 147 546 853 821 559 371 209 293 260 185 482 461 450 460 534 854 1038 1096 1010 893 926 873 1187 946 828 889 1119 1014 647 552 426 81 0 215 60 904 1371 1065 1082 1218 969 1040 1042 788
0 0 0 0 88 370 519 735 648 290 278 296 339 380 440 595 525 431 452 493 696 899 1043 926 778 717 685 670 589 510 581 603 369 325 677 382 161 16 0 28 41 97 183 84 319 491 330 544 693
0 0 0 461 353 359 801 817 687 551 394 411 438 554 534 576 569 434 503 556 523 805 883 823 665 565 432 349 515 418 403 439 499 386 580 431 185 0 1 0 19 16 0 0 5 244 282 172 305
0 0 31 114 254 422 704 819 832 553 829 648 623 666 584 576 517 479 560 518 348 577 579 643 429 416 310 250 246 246 311 529 544 582 691 586 136 1 39 25 86 6 0 0 63 154 245 406 425
0 21 50 325 722 880 853 724 825 616 956 969 794 672 645 553 519 514 541 443 273 310 339 215 282 270 110 176 158 222 182 406 597 668 529 609 240 51 50 85 100 128 88 58 69 135 112 147 173
0 45 75 328 387 751 757 796 882 647 857 968 963 844 758 670 543 611 573 438 306 223 191 144 128 217 194 94 145 202 239 276 341 364 228 521 219 197 241 99 4 6 7 66 119 138 127 390 363
0 0 54 65 354 765 83 693 838 710 518 475 504 714 832 619 522 580 476 350 220 168 137 127 333 354 326 73 102 174 227 173 160 165 148 351 470 232 173 71 25 5 62 119 239 232 368 322 312
0 0 0 1 13 255 72 485 791 794 700 550 397 403 384 228 381 382 389 345 290 262 376 399 368 453 523 266 153 169 180 108 47 17 128 293 390 220 41 104 85 16 90 93 194 442 519 518 531
0 0 0 0 136 200 266 333 535 227 657 340 139 187 387 278 273 326 355 287 327 374 421 413 434 560 721 430 293 188 144 120 90 103 312 222 233 205 105 78 121 313 177 213 300 409 277 956 871
0 0 0 313 444 258 170 78 28 43 38 257 63 45 277 537 343 291 258 366 443 421 289 221 282 449 557 349 432 288 220 170 164 194 203 497 249 242 223 213 170 291 346 449 410 202 39 266 490
0 0 2 391 92 205 15 1 0 0 23 98 246 143 314 156 97 49 72 196 409 400 253 133 148 280 481 396 311 326 217 188 278 234 304 370 261 171 258 316 255 115 155 356 287 436 622 435 390
0 0 5 446 67 0 0 7 0 0 101 205 430 210 126 2 0 12 0 131 232 354 313 299 141 124 299 363 301 418 440 422 664 693 755 531 372 203 144 277 201 133 237 372 171 436 620 918 401
0 0 14 87 83 309 0 84 0 0 228 562 808 573 516 0 47 258 239 219 402 343 404 302 162 98 169 386 457 444 500 497 220 423 492 609 487 314 381 348 491 245 188 458 353 377 507 373 705
0 0 43 2 0 0 0 1 0 15 352 187 196 461 530 1 0 93 92 169 389 881 671 701 432 250 451 567 378 394 281 42 58 119 206 546 409 498 829 477 848 710 459 411 490 798 617 489 619
0 0 0 0 0 0 0 0 0 88 200 124 762 106 40 809 4 145 778 852 849 763 961 791 495 444 385 410 507 526 428 338 301 181 142 177 513 576 821 673 883 486 515 429 326 430 786 802 726
0 0 0 0 0 0 0 0 0 0 21 43 533 217 1358 512 2 1067 860 693 598 566 724 628 905 627 721 512 331 602 655 572 504 500 649 609 651 749 823 839 986 889 726 484 722 403 563 793 543
0 0 0 0 0 0 0 0 32 25 336 361 1111 1413 1419 877 1214 1069 843 762 654 499 680 768 603 726 890 758 804 899 566 553 511 548 560 795 991 757 805 779 731 939 995 1075 882 708 761 681 706
0 0 0 0 0 0 0 0 0 17 827 990 1159 1150 1461 1411 1052 1016 684 585 468 384 342 274 306 494 754 1007 1018 1088 840 784 907 987 849 921 635 756 1108 121 932 832 790 846 1100 1084 1063 807 851
0 0 0 0 0 14 0 40 12 152 711 733 839 731 540 525 402 114 29 20 0 0 0 0 0 0 0 0 5 42 2 0 3 192 307 588 796 559 882 790 949 1085 1026 926 1013 1182 1239 976 995
0 0 0 0 0 0 0 0 0 269 553 529 417 287 215 80 5 0 0 0 0 0 0 0 0 0 0 0 0 0 0 0 0 0 0 1 60 140 248 425 406 602 957 1266 1179 1303 851 1059 1246
0 0 0 0 0 0 0 0 30 165 449 369 284 85 9 0 0 0 0 0 0 0 0 0 0 0 0 0 0 0 0 0 0 0 0 0 1 0 42 109 189 243 684 953 601 761 1326 1236 1185